Location: Newark
(33.6333°S, 78.8500°W)
Time: 08:17:28
(UTC+00:00)

Tiros 1 despin weight - Pass Details

Date: 24 September 2019
Orbit: 593 x 643 km, 48.2° (Epoch: 20 October)

Event Time Altitude Azimuth Distance (km) Brightness Sun altitude
Rises 11:11:11 0° 240° (WSW) 2,954 ? 1.0°
Reaches altitude 10° 11:13:39 10° 247° (WSW) 2,044 ? 1.5°
Maximum altitude 11:18:00 38° 314° (NW) 992 ? 2.4°
Drops below altitude 10° 11:22:20 10° 22° (NNE) 2,031 ? 3.3°
Sets 11:24:46 0° 30° (NNE) 2,932 ? 3.8°
